sat.trackr.live / text

‹ back to catalog

STARLINK-30109

NORAD 56298 · 2023-056N

PAYLOAD ACTIVE UNKNOWN

§ Identity

Operator
Country
US
Launch date
2023-04-19
Launch site
AFETR
Launch vehicle
Mass (kg)
RCS (m²)

Purposes: comms

External: N2YO · Heavens-Above · Gunter

§ Orbital elements

Epoch: 2026-09-20T03:53:19.310784Z

Period
94.27 min
Inclination
43.0014°
Eccentricity
0.0000648
Mean motion
15.27582637 rev/d
Perigee alt
482.6 km
Apogee alt
483.5 km
Semi-major
6,861.2 km
B*
9.6182e-6
RAAN
190.4275°
Arg perigee
278.7805°
Mean anomaly
81.2974°
Rev number
18,984

§ Raw data

STARLINK-301091 56298U 23056N   26263.16202906  .00000003  00000+0  96182-5 0  99942 56298  43.0014 190.4275 0000648 278.7805  81.2974 15.27582637189844

JSON: /api/v1/satellites/56298 · /tle

For live sub-satellite position, see the globe view (requires WebGL).

§ Visibility from observer

Set your observer location to see the next 7 days of passes ≥ 10°. The values pass through the URL so the page stays shareable.

No JS? Fill the form by hand. The geolocation button needs JavaScript.